Regional Weather Roundup
Issued by NWS Newport/Morehead, NC

Current Version | Previous Version | Graphics & Text | Print | Product List | Glossary Off
Versions: 1 2 3 4 5 6 7 8 9 10 11 12 13 14 15 16 17 18 19 20 21 22 23 24 25 26 27 28 29 30 31 32 33 34 35 36 37 38 39 40 41 42 43 44 45 46 47 48 49 50

000
ASUS42 KMHX 041912
RWRMHX
WEATHER ROUNDUP FOR EASTERN NORTH CAROLINA
NATIONAL WEATHER SERVICE NEWPORT/MOREHEAD CITY NC
200 PM EST WED MAR 04 2015

NOTE: "FAIR" INDICATES FEW OR NO CLOUDS BELOW 12,000 FEET
WITH NO SIGNIFICANT WEATHER AND/OR OBSTRUCTIONS TO VISIBILITY

NCZ015>017-031-032-045>047-102-103-042000-
NORTH COAST

CITY           SKY/WX    TMP DP  RH WIND       PRES   REMARKS
EDENTON        PTSUNNY   70  61  72 W10G16    29.94F
ELIZABETH CITY PTSUNNY   73  62  68 SW14G25   29.93F
KITTY HAWK     PTCLDY    69  60  71 SW6       29.93F
MANTEO         CLOUDY    64  55  72 S8        29.95F

$$

NCZ045>047-081-094-103-104-042000-
CENTRAL COAST

CITY           SKY/WX    TMP DP  RH WIND       PRES   REMARKS
FRISCO         FOG       56  56 100 SW13      29.99F VSB 1/4
SWANQUARTER      N/A     61 N/A N/A S20       29.91S

$$

NCZ095-097-098-100-101-042000-
SOUTHERN COAST

CITY           SKY/WX    TMP DP  RH WIND       PRES   REMARKS
BEAUFORT       FOG       61  61 100 SW20G30   30.01F VSB 1/2
CEDAR ISLAND     N/A     70 N/A N/A S21G31    30.00F
JACKSONVILLE   MOSUNNY   79  64  60 SW18G31   29.96F
PINEY ISLAND     N/A    N/A N/A N/A MISG      29.98F
WILMINGTON     SUNNY     76  64  66 S18G25    29.98F


$$

NCZ011>013-027>030-043-044-078>080-089-090>093-098-042000-
COASTAL PLAIN

CITY           SKY/WX    TMP DP  RH WIND       PRES   REMARKS
AHOSKIE        MOSUNNY   65  59  80 SW5       29.93F
CLINTON        PTSUNNY   77  64  62 SW15G25   29.95F
ELIZABETHTOWN  MOSUNNY   80  63  55 SW13G22   29.96F
GOLDSBORO      NOT AVBL
GREENVILLE     MOSUNNY   73  63  68 W13G20    29.95F
HAVELOCK       SUNNY     75  63  66 S16G23    29.99F
KENANSVILLE    PTSUNNY   77  61  57 SW13G18   29.95F
KINSTON        MOSUNNY   77  63  61 SW14      29.94F
NEW BERN       CLOUDY    79  63  57 SW20G26   29.96F
RICHLANDS      CLOUDY    79  64  61 SW18      29.96F
ROCKY MOUNT    SUNNY     67  59  75 SW13      29.94F
WASHINGTON     MOSUNNY   76  63  62 SW18G26   29.93F
WHITEVILLE     MOSUNNY   79  63  58 SW15G23   29.98F

$$

AMZ130-135-150-152-154-156-158-170-250-252-270-ANZ085-086-088-633-658-670-042000-
MARINE OBSERVATIONS

STATION/POSITION TIME  TEMP    WIND        PRES    WAVE   SWELL
                       AIR SEA DIR/SP/G            HT/PER HT/PER
                 (UTC) (F)     (DEG/KT/KT) (MB)    (FT/S) (FT/S)
CHESAPEAKE LIGHT 1800   48      CALM  /  1 1015.0
64 E VA BEACH    1850   53 54  230/ 10/ 12 1013.9    5/ 8   5/ 8
DUCK             1800   58 35  210/  7/ 10 1013.6
2 E DUCK         1811      38                N/A     3/ 8
10 NE DUCK       1822      38                N/A     4/ 7   2/13
OREGON INLET     1800   53 45  200/ 20/ 24 1015.1
HATTERAS CG      1800   56 45  230/ 11/ 16 1016.9
CAPE LOOKOUT     1800   59     230/ 11/ 14 1017.3
BEAUFORT LAB     1800   58 45  220/ 12/ 16 1016.1
27 SE WRIGHTSVLE NOT AVBL
5 SE WRIGHTSVLE  NOT AVBL
225 S CAPE HAT   1850   73 73  210/ 17/ 19 1021.2    5/10   3/10
41 SE CHARLESTON 1850   69 69  220/ 16/ 19 1017.8    5/ 6   2/ 9

$$


USA.gov is the U.S. government's official web portal to all federal, state and local government web resources and services.